M I D A S
Marine Information and Data Acquisition System
Tripno 1952 of the Zeeleeuw from 2010-09-03 06:50:40 to 2010-09-03 18:15:48
Back to CruiseResearch ActivitiesStationsMapUnderway DataData graphs

EquipmentUnitsComments
TimeDGPSUTC
LatitudeDGPSDM.mWGS84
LongitudeDGPSDM.mWGS84
SpeedMeteo Stationm/sRelative wind speed
DirectionMeteo StationdegRelative wind direction
TemperatureMeteo Stationdeg CelciusAir temperature
PressureMeteo StationPaAtmospheric pressure
HumidityMeteo Station%Relative humidity
Missing or incorrect values are displayed as -999
Metereological data collected by the RV Zeeleeuw from 2010-09-03 06:10:24 to 2010-09-03 18:27:01
                                                                                    Next 1000 lines
Time Latitude Longitude Speed Direction Temperature Pressure Humidity
2010-09-03 06:10:34 51°13.663 2°55.961 -999 321 13.1 102090 45
2010-09-03 06:10:39 51°13.662 2°55.96 -999 326 13.1 102090 45
2010-09-03 06:10:44 51°13.662 2°55.96 -999 323 13.1 102090 46
2010-09-03 06:10:49 51°13.662 2°55.96 -999 332 13.1 102090 46
2010-09-03 06:10:54 51°13.662 2°55.96 -999 328 13.1 102090 46
2010-09-03 06:10:59 51°13.662 2°55.96 -999 301 13.1 102090 46
2010-09-03 06:11:03 51°13.662 2°55.96 0.1 320 13.1 102090 46
2010-09-03 06:11:08 51°13.662 2°55.96 0.1 308 13.1 102090 46
2010-09-03 06:11:13 51°13.662 2°55.96 0.1 327 13.1 102090 46
2010-09-03 06:11:18 51°13.662 2°55.959 0.1 306 13.1 102090 46
2010-09-03 06:11:23 51°13.662 2°55.959 -999 325 13.1 102090 46
2010-09-03 06:11:28 51°13.662 2°55.959 -999 329 13.1 102090 46
2010-09-03 06:11:33 51°13.662 2°55.959 -999 320 13.1 102080 46
2010-09-03 06:11:38 51°13.662 2°55.959 -999 328 13.1 102080 46
2010-09-03 06:11:42 51°13.662 2°55.959 -999 320 13.1 102090 46
2010-09-03 06:11:47 51°13.662 2°55.96 0.1 306 13.1 102090 46
2010-09-03 06:11:52 51°13.662 2°55.96 0.1 317 13.1 102090 46
2010-09-03 06:11:57 51°13.662 2°55.959 0.2 303 13.1 102090 46
2010-09-03 06:12:02 51°13.662 2°55.96 0.2 316 13.1 102090 46
2010-09-03 06:12:07 51°13.662 2°55.96 0.1 306 13.1 102090 46
2010-09-03 06:12:11 51°13.662 2°55.96 0.1 321 13.1 102090 44
2010-09-03 06:12:17 51°13.662 2°55.96 -999 306 13.1 102090 44
2010-09-03 06:12:21 51°13.662 2°55.96 -999 325 13.1 102090 46
2010-09-03 06:12:26 51°13.662 2°55.96 -999 329 13.1 102090 46
2010-09-03 06:12:31 51°13.662 2°55.96 -999 326 13.1 102090 46
2010-09-03 06:12:36 51°13.662 2°55.96 0.1 330 13.1 102090 46
2010-09-03 06:12:41 51°13.662 2°55.96 0.1 332 13.1 102090 46
2010-09-03 06:12:46 51°13.662 2°55.96 0.1 329 13.1 102090 46
2010-09-03 06:12:50 51°13.662 2°55.96 -999 322 13.1 102090 46
2010-09-03 06:12:55 51°13.662 2°55.96 -999 306 13.1 102090 46
2010-09-03 06:13:00 51°13.662 2°55.96 0.1 321 13.1 102080 46
2010-09-03 06:13:06 51°13.662 2°55.96 0.1 306 13.1 102080 46
2010-09-03 06:13:10 51°13.662 2°55.96 0.1 317 13.1 102090 46
2010-09-03 06:13:15 51°13.662 2°55.96 -999 306 13.1 102090 46
2010-09-03 06:13:20 51°13.662 2°55.96 -999 315 13.1 102080 46
2010-09-03 06:13:26 51°13.662 2°55.96 -999 306 13.1 102080 46
2010-09-03 06:13:30 51°13.662 2°55.96 -999 317 13.1 102090 46
2010-09-03 06:13:35 51°13.662 2°55.96 -999 327 13.1 102090 46
2010-09-03 06:13:40 51°13.662 2°55.96 -999 326 13.1 102090 46
2010-09-03 06:13:46 51°13.662 2°55.96 -999 305 13.1 102090 46
2010-09-03 06:13:50 51°13.662 2°55.96 -999 322 13.1 102080 46
2010-09-03 06:13:55 51°13.662 2°55.96 -999 306 13.1 102080 46
2010-09-03 06:14:01 51°13.662 2°55.96 -999 24 13.1 102090 46
2010-09-03 06:14:06 51°13.662 2°55.96 -999 305 13.1 102090 46
2010-09-03 06:14:10 51°13.662 2°55.96 -999 326 13.1 102090 46
2010-09-03 06:14:15 51°13.662 2°55.96 -999 324 13.1 102090 46
2010-09-03 06:14:20 51°13.662 2°55.96 -999 322 13.1 102090 46
2010-09-03 06:14:25 51°13.662 2°55.96 0.1 306 13.1 102090 46
2010-09-03 06:14:30 51°13.662 2°55.96 0.1 316 13.1 102090 46
2010-09-03 06:14:35 51°13.662 2°55.96 -999 306 13.1 102090 46
2010-09-03 06:14:40 51°13.662 2°55.96 -999 325 13.1 102090 46
2010-09-03 06:14:45 51°13.662 2°55.96 0.3 308 13.1 102090 46
2010-09-03 06:14:50 51°13.662 2°55.96 0.5 319 13.1 102090 45
2010-09-03 06:14:55 51°13.662 2°55.96 0.1 330 13.1 102090 45
2010-09-03 06:15:00 51°13.662 2°55.96 0.1 317 13.1 102090 45
2010-09-03 06:15:06 51°13.662 2°55.96 0.7 308 13.1 102090 45
2010-09-03 06:15:10 51°13.662 2°55.96 0.2 23 13.1 102090 46
2010-09-03 06:15:16 51°13.662 2°55.96 0.1 307 13.1 102090 46
2010-09-03 06:15:20 51°13.662 2°55.96 0.1 23 13.1 102090 45
2010-09-03 06:15:25 51°13.662 2°55.96 0.1 306 13.1 102090 45
2010-09-03 06:15:30 51°13.662 2°55.96 -999 23 13.2 102090 46
2010-09-03 06:15:36 51°13.662 2°55.96 -999 306 13.2 102090 46
2010-09-03 06:15:41 51°13.662 2°55.959 -999 23 13.2 102090 46
2010-09-03 06:15:46 51°13.662 2°55.959 -999 306 13.2 102090 46
2010-09-03 06:15:50 51°13.662 2°55.96 -999 24 13.2 102090 46
2010-09-03 06:15:54 51°13.662 2°55.96 -999 306 13.2 102090 46
2010-09-03 06:16:01 51°13.662 2°55.96 -999 27 13.2 102090 46
2010-09-03 06:16:06 51°13.662 2°55.96 -999 306 13.2 102090 46
2010-09-03 06:16:10 51°13.662 2°55.96 -999 24 13.2 102090 46
2010-09-03 06:16:15 51°13.662 2°55.959 0.1 306 13.2 102090 46
2010-09-03 06:16:20 51°13.662 2°55.96 0.1 315 13.2 102090 46
2010-09-03 06:16:26 51°13.662 2°55.96 -999 306 13.2 102090 46
2010-09-03 06:16:30 51°13.662 2°55.96 -999 320 13.2 102090 46
2010-09-03 06:16:34 51°13.662 2°55.96 -999 306 13.2 102090 46
2010-09-03 06:16:40 51°13.662 2°55.96 -999 317 13.2 102090 46
2010-09-03 06:16:46 51°13.662 2°55.96 -999 306 13.2 102090 46
2010-09-03 06:16:50 51°13.662 2°55.96 -999 318 13.2 102090 46
2010-09-03 06:16:55 51°13.662 2°55.96 -999 306 13.2 102090 46
2010-09-03 06:17:00 51°13.662 2°55.96 -999 24 13.2 102090 46
2010-09-03 06:17:05 51°13.662 2°55.96 -999 306 13.2 102090 46
2010-09-03 06:17:10 51°13.662 2°55.96 -999 319 13.2 102090 46
2010-09-03 06:17:15 51°13.662 2°55.96 -999 306 13.2 102090 46
2010-09-03 06:17:20 51°13.662 2°55.96 -999 319 13.2 102090 46
2010-09-03 06:17:25 51°13.662 2°55.96 -999 306 13.2 102090 46
2010-09-03 06:17:30 51°13.662 2°55.96 -999 317 13.2 102090 45
2010-09-03 06:17:35 51°13.662 2°55.96 -999 306 13.2 102090 45
2010-09-03 06:17:40 51°13.662 2°55.96 -999 23 13.3 102090 46
2010-09-03 06:17:46 51°13.662 2°55.96 -999 306 13.3 102090 46
2010-09-03 06:17:50 51°13.662 2°55.96 -999 23 13.2 102100 46
2010-09-03 06:17:55 51°13.662 2°55.96 -999 306 13.2 102100 46
2010-09-03 06:18:01 51°13.662 2°55.96 -999 24 13.3 102100 46
2010-09-03 06:18:06 51°13.662 2°55.961 -999 305 13.3 102100 46
2010-09-03 06:18:10 51°13.662 2°55.96 -999 320 13.3 102090 46
2010-09-03 06:18:15 51°13.662 2°55.96 -999 306 13.3 102090 46
2010-09-03 06:18:20 51°13.662 2°55.961 -999 323 13.3 102100 46
2010-09-03 06:18:26 51°13.662 2°55.96 -999 306 13.3 102100 46
2010-09-03 06:18:30 51°13.662 2°55.96 -999 315 13.3 102100 46
2010-09-03 06:18:35 51°13.662 2°55.961 -999 306 13.3 102100 46
2010-09-03 06:18:40 51°13.662 2°55.961 -999 317 13.3 102100 46
2010-09-03 06:18:46 51°13.662 2°55.961 -999 306 13.3 102100 46
2010-09-03 06:18:50 51°13.662 2°55.961 -999 324 13.3 102100 46
2010-09-03 06:18:54 51°13.662 2°55.961 -999 306 13.3 102100 46
2010-09-03 06:19:00 51°13.662 2°55.96 -999 321 13.4 102100 46
2010-09-03 06:19:06 51°13.662 2°55.96 -999 306 13.4 102100 46
2010-09-03 06:19:10 51°13.662 2°55.96 -999 325 13.3 102100 46
2010-09-03 06:19:16 51°13.662 2°55.96 -999 306 13.3 102100 46
2010-09-03 06:19:21 51°13.662 2°55.961 0.1 323 13.4 102100 46
2010-09-03 06:19:26 51°13.662 2°55.96 0.1 329 13.4 102100 46
2010-09-03 06:19:30 51°13.662 2°55.96 0.1 330 13.4 102100 46
2010-09-03 06:19:35 51°13.662 2°55.961 -999 306 13.4 102100 46
2010-09-03 06:19:40 51°13.662 2°55.961 -999 324 13.4 102100 46
2010-09-03 06:19:46 51°13.662 2°55.961 0.1 306 13.4 102100 46
2010-09-03 06:19:50 51°13.662 2°55.961 0.1 317 13.4 102100 46
2010-09-03 06:19:55 51°13.662 2°55.961 -999 306 13.4 102100 46
2010-09-03 06:20:00 51°13.662 2°55.961 -999 23 13.4 102100 45
2010-09-03 06:20:06 51°13.662 2°55.961 0.1 310 13.4 102100 45
2010-09-03 06:20:10 51°13.662 2°55.961 0.1 318 13.4 102090 45
2010-09-03 06:20:16 51°13.662 2°55.961 0.1 306 13.4 102090 45
2010-09-03 06:20:21 51°13.662 2°55.961 -999 322 13.4 102100 46
2010-09-03 06:20:26 51°13.662 2°55.961 -999 306 13.4 102100 46
2010-09-03 06:20:31 51°13.662 2°55.961 -999 321 13.4 102100 46
2010-09-03 06:20:36 51°13.662 2°55.961 -999 328 13.4 102100 46
2010-09-03 06:20:42 51°13.662 2°55.961 -999 329 13.4 102100 46
2010-09-03 06:20:47 51°13.662 2°55.961 -999 303 13.4 102100 46
2010-09-03 06:20:52 51°13.662 2°55.961 -999 322 13.4 102100 46
2010-09-03 06:20:58 51°13.662 2°55.961 -999 306 13.4 102100 46
2010-09-03 06:21:02 51°13.662 2°55.961 -999 24 13.4 102100 46
2010-09-03 06:21:08 51°13.662 2°55.961 -999 305 13.4 102100 46
2010-09-03 06:21:13 51°13.662 2°55.96 0.1 19 13.4 102100 46
2010-09-03 06:21:18 51°13.662 2°55.961 0.1 306 13.4 102100 46
2010-09-03 06:21:23 51°13.662 2°55.961 0.1 326 13.4 102100 46
2010-09-03 06:21:29 51°13.662 2°55.961 -999 306 13.4 102100 46
2010-09-03 06:21:34 51°13.662 2°55.961 -999 325 13.4 102100 46
2010-09-03 06:21:39 51°13.662 2°55.961 -999 306 13.4 102100 46
2010-09-03 06:21:44 51°13.662 2°55.961 -999 324 13.4 102100 46
2010-09-03 06:21:49 51°13.662 2°55.96 0.1 306 13.4 102100 46
2010-09-03 06:21:54 51°13.662 2°55.96 0.1 323 13.3 102100 46
2010-09-03 06:21:59 51°13.663 2°55.961 0.1 306 13.3 102100 46
2010-09-03 06:22:04 51°13.663 2°55.961 0.1 317 13.3 102100 46
2010-09-03 06:22:09 51°13.663 2°55.96 -999 305 13.3 102100 46
2010-09-03 06:22:14 51°13.663 2°55.961 -999 321 13.3 102100 46
2010-09-03 06:22:19 51°13.663 2°55.961 -999 306 13.3 102100 46
2010-09-03 06:22:24 51°13.663 2°55.961 0.1 322 13.4 102100 46
2010-09-03 06:22:29 51°13.662 2°55.96 0.1 329 13.4 102100 46
2010-09-03 06:22:34 51°13.663 2°55.96 0.1 23 13.3 102100 46
2010-09-03 06:22:38 51°13.663 2°55.96 0.1 326 13.3 102100 46
2010-09-03 06:22:44 51°13.663 2°55.96 0.1 316 13.3 102100 46
2010-09-03 06:22:49 51°13.663 2°55.96 0.9 306 13.3 102100 46
2010-09-03 06:22:54 51°13.663 2°55.96 1.2 316 13.3 102100 45
2010-09-03 06:22:58 51°13.663 2°55.96 0.6 301 13.3 102100 45
2010-09-03 06:23:03 51°13.663 2°55.96 0.7 322 13.3 102100 49
2010-09-03 06:23:09 51°13.662 2°55.96 0.1 306 13.3 102100 49
2010-09-03 06:23:14 51°13.662 2°55.96 0.1 324 13.3 102100 49
2010-09-03 06:23:18 51°13.662 2°55.96 -999 306 13.3 102100 49
2010-09-03 06:23:23 51°13.662 2°55.96 -999 329 13.3 102100 46
2010-09-03 06:23:28 51°13.662 2°55.96 -999 329 13.3 102100 46
2010-09-03 06:23:33 51°13.662 2°55.96 -999 325 13.3 102100 46
2010-09-03 06:23:38 51°13.662 2°55.96 -999 331 13.3 102100 46
2010-09-03 06:23:43 51°13.662 2°55.96 0.1 322 13.3 102100 46
2010-09-03 06:23:48 51°13.662 2°55.96 0.1 306 13.3 102100 46
2010-09-03 06:23:53 51°13.662 2°55.96 0.1 324 13.4 102100 46
2010-09-03 06:23:58 51°13.662 2°55.96 -999 332 13.4 102100 46
2010-09-03 06:24:02 51°13.662 2°55.96 -999 323 13.3 102100 46
2010-09-03 06:24:07 51°13.662 2°55.96 -999 332 13.3 102100 46
2010-09-03 06:24:12 51°13.662 2°55.961 -999 332 13.4 102090 46
2010-09-03 06:24:17 51°13.662 2°55.96 -999 306 13.4 102090 46
2010-09-03 06:24:22 51°13.662 2°55.96 0.1 318 13.4 102100 48
2010-09-03 06:24:27 51°13.662 2°55.96 0.1 306 13.4 102100 48
2010-09-03 06:24:31 51°13.662 2°55.96 0.1 334 13.4 102100 46
2010-09-03 06:24:37 51°13.662 2°55.96 -999 306 13.4 102100 46
2010-09-03 06:24:42 51°13.662 2°55.96 -999 327 13.4 102100 46
2010-09-03 06:24:46 51°13.662 2°55.96 -999 306 13.4 102100 46
2010-09-03 06:24:51 51°13.662 2°55.96 -999 319 13.4 102100 46
2010-09-03 06:24:56 51°13.662 2°55.96 -999 306 13.4 102100 46
2010-09-03 06:25:01 51°13.662 2°55.96 -999 319 13.4 102090 46
2010-09-03 06:25:06 51°13.662 2°55.96 -999 306 13.4 102090 46
2010-09-03 06:25:10 51°13.662 2°55.96 -999 316 13.4 102090 46
2010-09-03 06:25:15 51°13.662 2°55.96 -999 306 13.4 102090 46
2010-09-03 06:25:20 51°13.662 2°55.96 -999 320 13.4 102100 46
2010-09-03 06:25:26 51°13.662 2°55.96 -999 306 13.4 102100 46
2010-09-03 06:25:30 51°13.662 2°55.961 -999 321 13.4 102090 45
2010-09-03 06:25:35 51°13.662 2°55.961 -999 336 13.4 102090 45
2010-09-03 06:25:40 51°13.662 2°55.96 -999 338 13.4 102100 46
2010-09-03 06:25:45 51°13.662 2°55.96 -999 336 13.4 102100 46
2010-09-03 06:25:50 51°13.662 2°55.961 0.1 331 13.4 102090 46
2010-09-03 06:25:55 51°13.662 2°55.961 0.1 329 13.4 102090 46
2010-09-03 06:26:00 51°13.663 2°55.961 0.1 318 13.4 102090 46
2010-09-03 06:26:05 51°13.663 2°55.961 -999 301 13.4 102090 46
2010-09-03 06:26:10 51°13.662 2°55.96 -999 321 13.4 102090 46
2010-09-03 06:26:15 51°13.662 2°55.96 -999 306 13.4 102090 46
2010-09-03 06:26:20 51°13.662 2°55.96 -999 320 13.4 102100 46
2010-09-03 06:26:26 51°13.662 2°55.96 -999 305 13.4 102100 46
2010-09-03 06:26:30 51°13.662 2°55.96 -999 316 13.4 102100 46
2010-09-03 06:26:36 51°13.662 2°55.96 -999 306 13.4 102100 46
2010-09-03 06:26:41 51°13.662 2°55.96 -999 326 13.5 102090 46
2010-09-03 06:26:46 51°13.662 2°55.96 0.1 329 13.5 102090 46
2010-09-03 06:26:50 51°13.662 2°55.96 0.1 325 13.4 102090 46
2010-09-03 06:26:55 51°13.662 2°55.96 -999 324 13.4 102090 46
2010-09-03 06:27:00 51°13.662 2°55.96 -999 323 13.5 102090 46
2010-09-03 06:27:06 51°13.662 2°55.96 0.1 309 13.5 102090 46
2010-09-03 06:27:10 51°13.662 2°55.959 0.1 23 13.4 102090 46
2010-09-03 06:27:15 51°13.662 2°55.96 0.1 306 13.4 102090 46
2010-09-03 06:27:21 51°13.662 2°55.96 -999 316 13.5 102090 46
2010-09-03 06:27:26 51°13.662 2°55.96 -999 301 13.5 102090 46
2010-09-03 06:27:30 51°13.662 2°55.96 0.1 322 13.5 102090 46
2010-09-03 06:27:35 51°13.662 2°55.96 0.1 305 13.5 102090 46
2010-09-03 06:27:40 51°13.662 2°55.961 0.1 321 13.5 102090 46
2010-09-03 06:27:46 51°13.662 2°55.961 0.1 306 13.5 102090 46
2010-09-03 06:27:50 51°13.662 2°55.961 -999 326 13.5 102090 47
2010-09-03 06:27:56 51°13.662 2°55.961 -999 328 13.5 102090 47
2010-09-03 06:28:01 51°13.662 2°55.961 -999 326 13.5 102090 46
2010-09-03 06:28:06 51°13.662 2°55.961 -999 325 13.5 102090 46
2010-09-03 06:28:10 51°13.662 2°55.961 -999 322 13.5 102090 45
2010-09-03 06:28:15 51°13.662 2°55.961 0.1 326 13.5 102090 45
2010-09-03 06:28:20 51°13.662 2°55.96 0.3 328 13.5 102090 46
2010-09-03 06:28:26 51°13.661 2°55.961 0.1 305 13.5 102090 46
2010-09-03 06:28:30 51°13.661 2°55.961 0.1 322 13.5 102090 46
2010-09-03 06:28:35 51°13.661 2°55.96 0.1 332 13.5 102090 46
2010-09-03 06:28:40 51°13.661 2°55.96 0.1 331 13.5 102090 46
2010-09-03 06:28:46 51°13.661 2°55.96 0.1 336 13.5 102090 46
2010-09-03 06:28:50 51°13.661 2°55.96 0.1 329 13.5 102090 46
2010-09-03 06:28:55 51°13.661 2°55.959 0.6 303 13.5 102090 46
2010-09-03 06:29:01 51°13.661 2°55.958 0.3 319 13.5 102090 46
2010-09-03 06:29:06 51°13.661 2°55.956 0.1 325 13.5 102090 46
2010-09-03 06:29:10 51°13.662 2°55.954 0.1 328 13.5 102090 44
2010-09-03 06:29:15 51°13.663 2°55.951 0.1 306 13.5 102090 44
2010-09-03 06:29:20 51°13.663 2°55.948 0.1 322 13.5 102090 46
2010-09-03 06:29:26 51°13.664 2°55.943 0.1 333 13.5 102090 46
2010-09-03 06:29:30 51°13.665 2°55.94 0.1 326 13.5 102090 46
2010-09-03 06:29:36 51°13.667 2°55.935 0.1 330 13.5 102090 46
2010-09-03 06:29:42 51°13.669 2°55.929 -999 330 13.5 102090 47
2010-09-03 06:29:48 51°13.671 2°55.923 0.1 346 13.5 102090 47
2010-09-03 06:29:53 51°13.672 2°55.917 0.1 336 13.5 102090 46
2010-09-03 06:29:59 51°13.674 2°55.911 0.1 338 13.5 102090 46
2010-09-03 06:30:04 51°13.676 2°55.905 0.1 339 13.5 102090 46
2010-09-03 06:30:09 51°13.678 2°55.898 0.1 338 13.5 102090 46
2010-09-03 06:30:14 51°13.68 2°55.892 0.1 337 13.5 102090 47
2010-09-03 06:30:19 51°13.682 2°55.886 0.1 333 13.5 102090 47
2010-09-03 06:30:24 51°13.684 2°55.879 0.1 333 13.5 102090 46
2010-09-03 06:30:29 51°13.686 2°55.872 0.1 341 13.5 102090 46
2010-09-03 06:30:34 51°13.688 2°55.866 0.1 337 13.5 102090 46
2010-09-03 06:30:39 51°13.69 2°55.858 0.1 336 13.5 102090 46
2010-09-03 06:30:44 51°13.691 2°55.851 0.1 335 13.4 102090 46
2010-09-03 06:30:49 51°13.692 2°55.845 0.1 336 13.4 102090 46
2010-09-03 06:30:54 51°13.694 2°55.838 -999 340 13.4 102090 45
2010-09-03 06:30:59 51°13.695 2°55.83 -999 340 13.4 102090 45
2010-09-03 06:31:04 51°13.697 2°55.822 -999 339 13.4 102090 46
2010-09-03 06:31:09 51°13.698 2°55.815 -999 341 13.4 102090 46
2010-09-03 06:31:14 51°13.699 2°55.807 0.1 355 13.5 102090 46
2010-09-03 06:31:19 51°13.7 2°55.799 0.1 358 13.5 102090 46
2010-09-03 06:31:24 51°13.7 2°55.792 0.1 359 13.5 102090 46
2010-09-03 06:31:29 51°13.701 2°55.784 -999 4 13.5 102090 46
2010-09-03 06:31:34 51°13.701 2°55.777 -999 16 13.5 102090 46
2010-09-03 06:31:39 51°13.702 2°55.77 -999 15 13.5 102090 46
2010-09-03 06:31:44 51°13.702 2°55.764 -999 13 13.4 102090 46
2010-09-03 06:31:49 51°13.703 2°55.758 -999 10 13.4 102090 46
2010-09-03 06:31:54 51°13.703 2°55.752 -999 358 13.5 102090 46
2010-09-03 06:31:58 51°13.704 2°55.748 1.4 1 13.5 102090 46
2010-09-03 06:32:03 51°13.704 2°55.743 0.3 353 13.5 102090 46
2010-09-03 06:32:08 51°13.704 2°55.741 0.9 353 13.5 102090 46
2010-09-03 06:32:13 51°13.704 2°55.739 0.5 353 13.5 102090 46
2010-09-03 06:32:18 51°13.705 2°55.738 1.3 352 13.5 102090 46
2010-09-03 06:32:22 51°13.705 2°55.739 0.5 351 13.5 102090 46
2010-09-03 06:32:28 51°13.706 2°55.74 0.9 347 13.5 102090 46
2010-09-03 06:32:32 51°13.707 2°55.742 0.8 344 13.5 102090 44
2010-09-03 06:32:37 51°13.708 2°55.744 1.9 354 13.5 102090 44
2010-09-03 06:32:42 51°13.709 2°55.746 0.6 350 13.5 102090 46
2010-09-03 06:32:47 51°13.71 2°55.747 1.3 359 13.5 102090 46
2010-09-03 06:32:52 51°13.711 2°55.748 0.9 6 13.5 102090 46
2010-09-03 06:32:57 51°13.711 2°55.748 0.4 11 13.5 102090 46
2010-09-03 06:33:02 51°13.711 2°55.748 1.3 4 13.5 102090 45
2010-09-03 06:33:06 51°13.711 2°55.748 1.5 17 13.5 102090 45
2010-09-03 06:33:11 51°13.71 2°55.747 1.4 18 13.5 102090 46
2010-09-03 06:33:16 51°13.709 2°55.746 0.5 24 13.5 102090 46
2010-09-03 06:33:21 51°13.708 2°55.745 1.5 23 13.5 102090 46
2010-09-03 06:33:26 51°13.707 2°55.744 0.5 26 13.5 102090 46
2010-09-03 06:33:30 51°13.706 2°55.743 0.3 21 13.5 102090 47
2010-09-03 06:33:36 51°13.704 2°55.742 0.3 18 13.5 102090 47
2010-09-03 06:33:42 51°13.704 2°55.742 1.6 16 13.5 102090 45
2010-09-03 06:33:47 51°13.704 2°55.742 1.8 13 13.5 102090 45
2010-09-03 06:33:51 51°13.705 2°55.742 1.4 13 13.5 102090 47
2010-09-03 06:33:57 51°13.706 2°55.742 1.5 14 13.5 102090 47
2010-09-03 06:34:02 51°13.708 2°55.742 1.3 21 13.6 102090 48
2010-09-03 06:34:06 51°13.71 2°55.741 1.2 15 13.6 102090 48
2010-09-03 06:34:11 51°13.713 2°55.741 0.9 22 13.6 102090 48
2010-09-03 06:34:16 51°13.715 2°55.739 0.1 21 13.6 102090 48
2010-09-03 06:34:21 51°13.718 2°55.738 0.1 27 13.6 102090 45
2010-09-03 06:34:26 51°13.721 2°55.736 0.1 37 13.6 102090 45
2010-09-03 06:34:30 51°13.724 2°55.734 -999 34 13.6 102090 47
2010-09-03 06:34:36 51°13.728 2°55.731 -999 31 13.6 102090 47
2010-09-03 06:34:40 51°13.732 2°55.728 -999 30 13.6 102090 46
2010-09-03 06:34:46 51°13.738 2°55.722 -999 28 13.6 102090 46
2010-09-03 06:34:50 51°13.743 2°55.718 -999 357 13.6 102090 46
2010-09-03 06:34:55 51°13.749 2°55.712 -999 351 13.6 102090 46
2010-09-03 06:35:00 51°13.756 2°55.705 -999 348 13.6 102090 46
2010-09-03 06:35:05 51°13.763 2°55.697 0.1 346 13.6 102090 46
2010-09-03 06:35:10 51°13.771 2°55.688 0.1 348 13.6 102090 46
2010-09-03 06:35:15 51°13.779 2°55.68 1 356 13.6 102090 46
2010-09-03 06:35:20 51°13.788 2°55.671 1.5 354 13.6 102090 46
2010-09-03 06:35:26 51°13.799 2°55.662 1.1 352 13.6 102090 46
2010-09-03 06:35:30 51°13.807 2°55.655 1.1 353 13.5 102090 46
2010-09-03 06:35:36 51°13.819 2°55.646 1.2 354 13.5 102090 46
2010-09-03 06:35:40 51°13.827 2°55.639 2.1 346 13.5 102090 45
2010-09-03 06:35:45 51°13.837 2°55.631 2.3 341 13.5 102090 45
2010-09-03 06:35:50 51°13.848 2°55.623 1.8 344 13.5 102090 46
2010-09-03 06:35:55 51°13.859 2°55.616 1.7 345 13.5 102090 46
2010-09-03 06:36:00 51°13.87 2°55.607 2 350 13.5 102090 45
2010-09-03 06:36:06 51°13.883 2°55.597 2.5 345 13.5 102090 45
2010-09-03 06:36:10 51°13.891 2°55.59 2.4 347 13.5 102090 44
2010-09-03 06:36:14 51°13.9 2°55.583 2 338 13.5 102090 44
2010-09-03 06:36:21 51°13.916 2°55.571 2.4 345 13.4 102090 48
2010-09-03 06:36:26 51°13.927 2°55.562 1.8 344 13.4 102090 48
2010-09-03 06:36:30 51°13.936 2°55.555 2.2 351 13.4 102090 45
2010-09-03 06:36:34 51°13.945 2°55.549 3.3 346 13.4 102090 45
2010-09-03 06:36:40 51°13.958 2°55.538 2.8 349 13.4 102090 45
2010-09-03 06:36:46 51°13.972 2°55.528 2.7 347 13.4 102090 45
2010-09-03 06:36:50 51°13.981 2°55.522 2.9 346 13.4 102100 48
2010-09-03 06:36:55 51°13.992 2°55.513 3.1 348 13.4 102100 48
2010-09-03 06:37:00 51°14.004 2°55.505 2.6 348 13.5 102090 47
2010-09-03 06:37:06 51°14.017 2°55.494 2.6 346 13.5 102090 47
2010-09-03 06:37:10 51°14.026 2°55.487 3.4 350 13.5 102090 46
2010-09-03 06:37:15 51°14.038 2°55.479 3.2 348 13.5 102090 46
2010-09-03 06:37:20 51°14.05 2°55.47 3.3 348 13.5 102100 45
2010-09-03 06:37:26 51°14.063 2°55.461 3.3 353 13.5 102100 45
2010-09-03 06:37:30 51°14.073 2°55.454 2.7 348 13.5 102090 45
2010-09-03 06:37:35 51°14.084 2°55.446 3 347 13.5 102090 45
2010-09-03 06:37:40 51°14.096 2°55.439 2.6 340 13.4 102100 48
2010-09-03 06:37:46 51°14.11 2°55.429 2.6 347 13.4 102100 48
2010-09-03 06:37:50 51°14.119 2°55.422 2.3 345 13.5 102090 48
2010-09-03 06:37:56 51°14.133 2°55.412 2.9 345 13.5 102090 48
2010-09-03 06:38:00 51°14.142 2°55.406 2.8 347 13.5 102100 47
2010-09-03 06:38:06 51°14.156 2°55.396 3 344 13.5 102100 47
2010-09-03 06:38:10 51°14.166 2°55.389 3.9 347 13.4 102100 46
2010-09-03 06:38:15 51°14.177 2°55.38 3 347 13.4 102100 46
2010-09-03 06:38:20 51°14.189 2°55.372 2.8 341 13.5 102090 47
2010-09-03 06:38:26 51°14.203 2°55.363 3.3 349 13.5 102090 47
2010-09-03 06:38:30 51°14.212 2°55.356 2.7 346 13.5 102100 45
2010-09-03 06:38:35 51°14.223 2°55.347 2.9 349 13.5 102100 45
2010-09-03 06:38:40 51°14.235 2°55.339 2.5 347 13.5 102090 48
2010-09-03 06:38:46 51°14.249 2°55.328 3.4 346 13.5 102090 48
2010-09-03 06:38:50 51°14.258 2°55.321 2.9 344 13.5 102100 44
2010-09-03 06:38:55 51°14.269 2°55.312 3.7 351 13.5 102100 44
2010-09-03 06:39:00 51°14.281 2°55.303 3.2 348 13.5 102100 45
2010-09-03 06:39:05 51°14.292 2°55.294 2.2 356 13.5 102100 45
2010-09-03 06:39:10 51°14.304 2°55.285 3 360 13.5 102100 45
2010-09-03 06:39:15 51°14.315 2°55.275 3.3 350 13.5 102100 45
2010-09-03 06:39:20 51°14.327 2°55.266 2.9 348 13.5 102100 45
2010-09-03 06:39:25 51°14.338 2°55.255 2.4 354 13.5 102100 45
2010-09-03 06:39:30 51°14.349 2°55.244 2.1 350 13.4 102090 45
2010-09-03 06:39:36 51°14.362 2°55.231 2.5 350 13.4 102090 45
2010-09-03 06:39:40 51°14.371 2°55.223 2.8 345 13.4 102090 45
2010-09-03 06:39:45 51°14.381 2°55.212 2.8 350 13.4 102090 45
2010-09-03 06:39:50 51°14.392 2°55.2 3.3 349 13.4 102100 45
2010-09-03 06:39:55 51°14.402 2°55.188 2.7 349 13.4 102100 45
2010-09-03 06:40:00 51°14.413 2°55.177 2.6 350 13.4 102100 45
2010-09-03 06:40:06 51°14.425 2°55.162 2.6 353 13.4 102100 45
2010-09-03 06:40:10 51°14.433 2°55.152 2.3 350 13.4 102100 45
2010-09-03 06:40:16 51°14.444 2°55.136 2.7 347 13.4 102100 45
2010-09-03 06:40:20 51°14.452 2°55.126 2.7 347 13.4 102100 45
2010-09-03 06:40:26 51°14.463 2°55.11 2.9 351 13.4 102100 45
2010-09-03 06:40:30 51°14.471 2°55.099 2.3 354 13.4 102100 48
2010-09-03 06:40:35 51°14.481 2°55.086 2.1 350 13.4 102100 48
2010-09-03 06:40:40 51°14.491 2°55.073 2.5 351 13.4 102100 45
2010-09-03 06:40:46 51°14.503 2°55.059 2.4 349 13.4 102100 45
2010-09-03 06:40:50 51°14.511 2°55.05 2.3 354 13.4 102100 48
2010-09-03 06:40:55 51°14.522 2°55.038 3.3 349 13.4 102100 48
2010-09-03 06:41:00 51°14.533 2°55.027 3.1 356 13.4 102100 45
2010-09-03 06:41:06 51°14.546 2°55.014 3.1 357 13.4 102100 45
2010-09-03 06:41:10 51°14.556 2°55.006 2.9 354 13.5 102100 47
2010-09-03 06:41:15 51°14.567 2°54.997 2.8 353 13.5 102100 47
2010-09-03 06:41:20 51°14.579 2°54.987 3.2 354 13.5 102100 45
2010-09-03 06:41:26 51°14.594 2°54.973 3.1 352 13.5 102100 45
2010-09-03 06:41:30 51°14.604 2°54.963 3.5 348 13.5 102100 47
2010-09-03 06:41:34 51°14.614 2°54.953 3.5 348 13.5 102100 47
2010-09-03 06:41:40 51°14.629 2°54.936 3.5 348 13.5 102090 46
2010-09-03 06:41:45 51°14.641 2°54.92 4 349 13.5 102090 46
2010-09-03 06:41:50 51°14.654 2°54.904 3.8 351 13.5 102100 45
2010-09-03 06:41:55 51°14.667 2°54.888 4 346 13.5 102100 45
2010-09-03 06:42:00 51°14.681 2°54.872 3.9 346 13.5 102100 46
2010-09-03 06:42:06 51°14.697 2°54.852 4.3 347 13.5 102100 46
2010-09-03 06:42:10 51°14.708 2°54.839 3.8 345 13.5 102100 48
2010-09-03 06:42:16 51°14.724 2°54.819 4.3 348 13.5 102100 48
2010-09-03 06:42:20 51°14.735 2°54.806 5.2 348 13.5 102100 45
2010-09-03 06:42:25 51°14.748 2°54.788 3.8 351 13.5 102100 45
2010-09-03 06:42:30 51°14.76 2°54.769 3.8 350 13.6 102100 46
2010-09-03 06:42:35 51°14.772 2°54.749 4 347 13.6 102100 46
2010-09-03 06:42:40 51°14.784 2°54.729 3.5 348 13.6 102100 46
2010-09-03 06:42:46 51°14.797 2°54.705 4.7 343 13.6 102100 46
2010-09-03 06:42:50 51°14.806 2°54.689 4.5 350 13.6 102100 46
2010-09-03 06:42:55 51°14.818 2°54.669 4.2 347 13.6 102100 46
2010-09-03 06:43:00 51°14.83 2°54.65 5.3 349 13.6 102100 46
2010-09-03 06:43:06 51°14.846 2°54.628 4.8 347 13.6 102100 46
2010-09-03 06:43:10 51°14.856 2°54.614 4.9 350 13.6 102100 45
2010-09-03 06:43:15 51°14.87 2°54.597 5.1 350 13.6 102100 45
2010-09-03 06:43:20 51°14.884 2°54.58 4.7 349 13.6 102100 45
2010-09-03 06:43:26 51°14.901 2°54.56 5 345 13.6 102100 45
2010-09-03 06:43:30 51°14.912 2°54.547 5.3 347 13.7 102100 46
2010-09-03 06:43:35 51°14.926 2°54.531 5.3 346 13.7 102100 46
2010-09-03 06:43:40 51°14.94 2°54.514 5.2 347 13.7 102100 46
2010-09-03 06:43:45 51°14.954 2°54.497 5.2 349 13.7 102100 46
2010-09-03 06:43:50 51°14.968 2°54.48 4.8 347 13.7 102100 48
2010-09-03 06:43:56 51°14.984 2°54.459 4.8 350 13.7 102100 48
2010-09-03 06:44:00 51°14.995 2°54.446 4.7 346 13.7 102090 45
2010-09-03 06:44:05 51°15.009 2°54.428 4.2 345 13.7 102090 45
2010-09-03 06:44:10 51°15.023 2°54.412 4.6 348 13.7 102100 47
2010-09-03 06:44:15 51°15.037 2°54.395 4.7 351 13.7 102100 47
2010-09-03 06:44:20 51°15.052 2°54.379 5.1 351 13.7 102100 47
2010-09-03 06:44:26 51°15.069 2°54.359 4.9 350 13.7 102100 47
2010-09-03 06:44:30 51°15.08 2°54.346 4.5 350 13.7 102100 45
2010-09-03 06:44:36 51°15.098 2°54.326 4.9 347 13.7 102100 45
2010-09-03 06:44:40 51°15.109 2°54.313 4.8 348 13.7 102100 48
2010-09-03 06:44:45 51°15.124 2°54.297 4.5 347 13.7 102100 48
2010-09-03 06:44:50 51°15.138 2°54.281 4.9 347 13.7 102100 45
2010-09-03 06:44:55 51°15.153 2°54.265 4.7 346 13.7 102100 45
2010-09-03 06:45:00 51°15.168 2°54.249 4.8 346 13.7 102100 47
2010-09-03 06:45:06 51°15.185 2°54.229 5.1 349 13.7 102100 47
2010-09-03 06:45:10 51°15.197 2°54.216 5 347 13.7 102090 45
2010-09-03 06:45:15 51°15.211 2°54.2 4.8 349 13.7 102090 45
2010-09-03 06:45:20 51°15.226 2°54.184 5.1 348 13.7 102100 49
2010-09-03 06:45:26 51°15.243 2°54.165 4.6 348 13.7 102100 49
2010-09-03 06:45:30 51°15.255 2°54.152 4.3 350 13.7 102100 46
2010-09-03 06:45:35 51°15.27 2°54.136 4.5 346 13.7 102100 46
2010-09-03 06:45:40 51°15.284 2°54.12 5.2 345 13.7 102100 46
2010-09-03 06:45:46 51°15.302 2°54.101 5.1 345 13.7 102100 46
2010-09-03 06:45:50 51°15.313 2°54.089 5.1 348 13.7 102100 47
2010-09-03 06:45:55 51°15.328 2°54.072 4.6 346 13.7 102100 47
2010-09-03 06:46:00 51°15.343 2°54.056 5.2 349 13.7 102100 46
2010-09-03 06:46:05 51°15.357 2°54.041 4.8 349 13.7 102100 46
2010-09-03 06:46:10 51°15.372 2°54.024 5.2 349 13.8 102100 46
2010-09-03 06:46:15 51°15.386 2°54.008 4.8 348 13.8 102100 46
2010-09-03 06:46:20 51°15.401 2°53.992 4.4 347 13.8 102100 48
2010-09-03 06:46:26 51°15.418 2°53.973 4.9 350 13.8 102100 48
2010-09-03 06:46:30 51°15.43 2°53.96 5.1 348 13.8 102100 45
2010-09-03 06:46:35 51°15.444 2°53.944 4.7 346 13.8 102100 45
2010-09-03 06:46:40 51°15.459 2°53.927 5 350 13.8 102100 49
2010-09-03 06:46:46 51°15.476 2°53.908 4.9 348 13.8 102100 49
2010-09-03 06:46:50 51°15.488 2°53.895 5.8 347 13.8 102100 44
2010-09-03 06:46:55 51°15.502 2°53.879 5.4 347 13.8 102100 44
2010-09-03 06:47:01 51°15.519 2°53.859 4.9 345 13.8 102100 48
2010-09-03 06:47:06 51°15.534 2°53.843 4.2 348 13.8 102100 48
2010-09-03 06:47:10 51°15.546 2°53.831 4.7 347 13.8 102100 46
2010-09-03 06:47:15 51°15.56 2°53.815 5.3 347 13.8 102100 46
2010-09-03 06:47:20 51°15.575 2°53.799 4.6 349 13.8 102100 46
2010-09-03 06:47:26 51°15.592 2°53.78 4.9 349 13.8 102100 46
2010-09-03 06:47:30 51°15.604 2°53.767 5.6 346 13.8 102100 49
2010-09-03 06:47:35 51°15.618 2°53.751 5.2 347 13.8 102100 49
2010-09-03 06:47:40 51°15.633 2°53.735 5.2 347 13.8 102100 48
2010-09-03 06:47:46 51°15.65 2°53.716 5.3 347 13.8 102100 48
2010-09-03 06:47:50 51°15.661 2°53.703 5.2 349 13.8 102100 46
2010-09-03 06:47:55 51°15.676 2°53.688 5.4 350 13.8 102100 46
2010-09-03 06:48:00 51°15.691 2°53.672 5.2 347 13.9 102100 46
2010-09-03 06:48:06 51°15.709 2°53.654 4.7 348 13.9 102100 46
2010-09-03 06:48:10 51°15.721 2°53.642 4.5 348 13.8 102100 49
2010-09-03 06:48:15 51°15.736 2°53.627 4.5 349 13.8 102100 49
2010-09-03 06:48:20 51°15.751 2°53.612 4.3 345 13.9 102090 46
2010-09-03 06:48:26 51°15.769 2°53.594 4.6 281 13.9 102090 46
2010-09-03 06:48:30 51°15.781 2°53.584 5.4 347 13.8 102100 46
2010-09-03 06:48:35 51°15.796 2°53.57 5 347 13.8 102100 46
2010-09-03 06:48:40 51°15.812 2°53.556 5 347 13.8 102100 48
2010-09-03 06:48:46 51°15.831 2°53.54 5.4 349 13.8 102100 48
2010-09-03 06:48:50 51°15.843 2°53.529 4.8 346 13.8 102100 48
2010-09-03 06:48:55 51°15.859 2°53.516 5 349 13.8 102100 48
2010-09-03 06:49:00 51°15.875 2°53.503 4.2 349 13.8 102100 48
2010-09-03 06:49:06 51°15.893 2°53.487 5.7 349 13.8 102100 48
2010-09-03 06:49:10 51°15.906 2°53.477 5.4 349 13.9 102100 48
2010-09-03 06:49:15 51°15.922 2°53.466 5.7 348 13.9 102100 48
2010-09-03 06:49:20 51°15.938 2°53.455 5.4 349 13.9 102100 46
2010-09-03 06:49:26 51°15.958 2°53.442 5.7 349 13.9 102100 46
2010-09-03 06:49:30 51°15.971 2°53.434 6 348 13.9 102100 47
2010-09-03 06:49:34 51°15.984 2°53.426 5.3 347 13.9 102100 47
2010-09-03 06:49:41 51°16.008 2°53.413 6.5 347 13.9 102100 48
2010-09-03 06:49:46 51°16.025 2°53.403 5.6 348 13.9 102100 48
2010-09-03 06:49:50 51°16.038 2°53.395 5.8 348 13.9 102100 46
2010-09-03 06:49:55 51°16.055 2°53.385 5.9 349 13.9 102100 46
2010-09-03 06:50:00 51°16.072 2°53.375 5.8 349 13.9 102100 44
2010-09-03 06:50:06 51°16.092 2°53.364 5.3 350 13.9 102100 44
2010-09-03 06:50:10 51°16.105 2°53.356 6.1 348 13.9 102090 46
2010-09-03 06:50:14 51°16.118 2°53.348 5.5 347 13.9 102090 46
2010-09-03 06:50:20 51°16.139 2°53.336 4.9 348 13.9 102090 46
2010-09-03 06:50:25 51°16.156 2°53.327 5.7 346 13.9 102090 46
2010-09-03 06:50:30 51°16.172 2°53.317 5.8 348 13.9 102100 48
2010-09-03 06:50:35 51°16.189 2°53.308 5.8 347 13.9 102100 48
2010-09-03 06:50:40 51°16.206 2°53.298 5.7 349 14 102100 48
2010-09-03 06:50:46 51°16.226 2°53.286 5.3 347 14 102100 48
2010-09-03 06:50:50 51°16.24 2°53.278 5.8 346 14 102100 47
2010-09-03 06:50:55 51°16.257 2°53.268 5.6 349 14 102100 47
2010-09-03 06:51:00 51°16.274 2°53.258 6.1 348 14 102100 46
2010-09-03 06:51:05 51°16.29 2°53.249 6 351 14 102100 46
2010-09-03 06:51:10 51°16.307 2°53.239 5.9 350 14 102100 47
2010-09-03 06:51:15 51°16.324 2°53.23 5.9 348 14 102100 47
2010-09-03 06:51:20 51°16.341 2°53.221 5.4 349 14 102100 47
2010-09-03 06:51:25 51°16.357 2°53.211 5.4 349 14 102100 47
2010-09-03 06:51:30 51°16.375 2°53.203 5.1 349 14 102100 49
2010-09-03 06:51:35 51°16.392 2°53.194 6.1 347 14 102100 49
2010-09-03 06:51:40 51°16.409 2°53.186 5.7 347 14 102100 47
2010-09-03 06:51:46 51°16.43 2°53.177 5.6 350 14 102100 47
2010-09-03 06:51:50 51°16.444 2°53.173 5.2 348 14 102100 48
2010-09-03 06:51:55 51°16.461 2°53.166 5.7 346 14 102100 48
2010-09-03 06:52:01 51°16.483 2°53.159 5.9 349 14 102100 47
2010-09-03 06:52:06 51°16.5 2°53.153 6.3 348 14 102100 47
2010-09-03 06:52:10 51°16.515 2°53.148 6.1 348 14 102100 47
2010-09-03 06:52:15 51°16.533 2°53.143 5.9 350 14 102100 47
2010-09-03 06:52:20 51°16.551 2°53.138 5.5 347 14 102100 48
2010-09-03 06:52:26 51°16.572 2°53.132 5.5 349 14 102100 48
2010-09-03 06:52:30 51°16.587 2°53.128 6.2 349 14 102100 49
2010-09-03 06:52:35 51°16.605 2°53.123 6 350 14 102100 49
2010-09-03 06:52:40 51°16.623 2°53.118 5.3 352 14 102090 45
2010-09-03 06:52:46 51°16.644 2°53.112 5.3 350 14 102090 45
2010-09-03 06:52:50 51°16.659 2°53.109 5.7 347 14.1 102100 48
2010-09-03 06:52:55 51°16.676 2°53.104 6.6 349 14.1 102100 48
2010-09-03 06:53:00 51°16.694 2°53.1 5.9 349 14.1 102100 46
2010-09-03 06:53:05 51°16.712 2°53.096 6 349 14.1 102100 46
2010-09-03 06:53:10 51°16.73 2°53.094 5.9 347 14.1 102100 46
2010-09-03 06:53:15 51°16.748 2°53.09 6.5 349 14.1 102100 46
2010-09-03 06:53:20 51°16.767 2°53.087 5.8 348 14.1 102100 48
2010-09-03 06:53:26 51°16.789 2°53.084 6 349 14.1 102100 48
2010-09-03 06:53:30 51°16.803 2°53.084 6.5 349 14.1 102100 46
2010-09-03 06:53:35 51°16.822 2°53.084 6.2 347 14.1 102100 46
2010-09-03 06:53:40 51°16.841 2°53.085 6.2 347 14.1 102090 46
2010-09-03 06:53:45 51°16.859 2°53.086 6.2 346 14.1 102090 46
2010-09-03 06:53:50 51°16.877 2°53.087 6.8 345 14.1 102090 46
2010-09-03 06:53:55 51°16.895 2°53.089 6.7 347 14.1 102090 46
2010-09-03 06:54:00 51°16.914 2°53.092 6.3 346 14.1 102090 49
2010-09-03 06:54:06 51°16.935 2°53.094 6.1 348 14.1 102090 49
2010-09-03 06:54:10 51°16.95 2°53.098 6.3 347 14.1 102090 47
2010-09-03 06:54:14 51°16.965 2°53.101 6.2 346 14.1 102090 47
2010-09-03 06:54:20 51°16.986 2°53.106 6.7 347 14.1 102100 46
2010-09-03 06:54:26 51°17.007 2°53.114 6.4 345 14.1 102100 46
2010-09-03 06:54:30 51°17.022 2°53.12 7.7 347 14.1 102100 46
2010-09-03 06:54:35 51°17.039 2°53.129 6.4 346 14.1 102100 46
2010-09-03 06:54:40 51°17.057 2°53.139 6.8 347 14.1 102090 48
2010-09-03 06:54:46 51°17.078 2°53.151 6.3 345 14.1 102090 48
2010-09-03 06:54:50 51°17.091 2°53.16 6.6 345 14.1 102090 47
2010-09-03 06:54:55 51°17.108 2°53.172 6.7 343 14.1 102090 47
2010-09-03 06:55:00 51°17.125 2°53.183 8 343 14.1 102090 46
2010-09-03 06:55:06 51°17.146 2°53.198 7.5 345 14.1 102090 46
2010-09-03 06:55:10 51°17.159 2°53.208 7.3 344 14.1 102090 46
2010-09-03 06:55:15 51°17.176 2°53.222 7.8 344 14.1 102090 46
2010-09-03 06:55:20 51°17.192 2°53.236 7.2 343 14.1 102090 45
2010-09-03 06:55:26 51°17.211 2°53.253 7.4 343 14.1 102090 45
2010-09-03 06:55:30 51°17.224 2°53.265 7 343 14.1 102090 46
2010-09-03 06:55:36 51°17.244 2°53.282 7.4 343 14.1 102090 46
2010-09-03 06:55:40 51°17.256 2°53.294 6.6 344 14.1 102090 46
2010-09-03 06:55:45 51°17.272 2°53.308 7 344 14.1 102090 46
2010-09-03 06:55:50 51°17.288 2°53.323 6.5 345 14.1 102090 46
2010-09-03 06:55:55 51°17.304 2°53.338 7.9 343 14.1 102090 46
2010-09-03 06:56:00 51°17.32 2°53.353 7.4 343 14.1 102090 46
2010-09-03 06:56:06 51°17.34 2°53.371 7.6 344 14.1 102090 46
2010-09-03 06:56:10 51°17.353 2°53.383 7.9 344 14.1 102090 46
2010-09-03 06:56:15 51°17.37 2°53.397 7.7 344 14.1 102090 46
2010-09-03 06:56:21 51°17.39 2°53.415 7.4 345 14.2 102100 47
2010-09-03 06:56:26 51°17.406 2°53.43 7 345 14.2 102100 47
2010-09-03 06:56:30 51°17.42 2°53.442 7.1 344 14.2 102090 47
2010-09-03 06:56:35 51°17.436 2°53.456 7 342 14.2 102090 47
2010-09-03 06:56:40 51°17.453 2°53.471 7 342 14.2 102090 48
2010-09-03 06:56:46 51°17.473 2°53.488 6.6 341 14.2 102090 48
2010-09-03 06:56:50 51°17.487 2°53.5 6.9 342 14.2 102100 49
2010-09-03 06:56:55 51°17.504 2°53.515 7.2 338 14.2 102100 49
2010-09-03 06:57:00 51°17.52 2°53.529 7 343 14.2 102100 48
2010-09-03 06:57:06 51°17.541 2°53.547 6.8 339 14.2 102100 48
2010-09-03 06:57:10 51°17.554 2°53.559 6.8 343 14.2 102100 46
2010-09-03 06:57:14 51°17.567 2°53.573 7.9 339 14.2 102100 46
2010-09-03 06:57:20 51°17.586 2°53.592 8.1 342 14.2 102090 47
2010-09-03 06:57:25 51°17.602 2°53.61 6.5 343 14.2 102090 47
2010-09-03 06:57:30 51°17.618 2°53.627 7.2 341 14.3 102100 45
2010-09-03 06:57:35 51°17.633 2°53.645 7 342 14.3 102100 45
2010-09-03 06:57:40 51°17.648 2°53.663 6.9 340 14.3 102100 48
2010-09-03 06:57:46 51°17.667 2°53.685 7.1 341 14.3 102100 48
2010-09-03 06:57:50 51°17.679 2°53.7 8 340 14.2 102100 46
2010-09-03 06:57:55 51°17.695 2°53.717 7 343 14.2 102100 46
2010-09-03 06:58:00 51°17.711 2°53.734 6.9 340 14.2 102100 45
2010-09-03 06:58:06 51°17.73 2°53.753 8.3 342 14.2 102100 45
2010-09-03 06:58:10 51°17.743 2°53.766 7.7 340 14.3 102090 46
2010-09-03 06:58:16 51°17.763 2°53.786 7.6 342 14.3 102090 46
2010-09-03 06:58:20 51°17.775 2°53.799 6.7 339 14.3 102100 46
2010-09-03 06:58:26 51°17.795 2°53.819 7.3 342 14.3 102100 46
2010-09-03 06:58:30 51°17.807 2°53.833 7.1 340 14.3 102100 46
2010-09-03 06:58:35 51°17.823 2°53.849 7.4 343 14.3 102100 46
2010-09-03 06:58:40 51°17.839 2°53.868 6.8 342 14.3 102100 47
2010-09-03 06:58:46 51°17.858 2°53.889 7.4 344 14.3 102100 47
2010-09-03 06:58:50 51°17.87 2°53.904 7.3 342 14.3 102100 47
2010-09-03 06:58:55 51°17.886 2°53.921 7.5 343 14.3 102100 47
2010-09-03 06:59:00 51°17.901 2°53.939 6.6 343 14.3 102090 48
2010-09-03 06:59:06 51°17.92 2°53.96 7 344 14.3 102090 48
2010-09-03 06:59:10 51°17.932 2°53.975 7.4 341 14.3 102100 46
2010-09-03 06:59:15 51°17.948 2°53.992 6.3 342 14.3 102100 46
2010-09-03 06:59:20 51°17.963 2°54.01 6.5 343 14.3 102100 46
2010-09-03 06:59:26 51°17.981 2°54.032 8.1 340 14.3 102100 46
2010-09-03 06:59:30 51°17.994 2°54.046 7.4 340 14.3 102100 46
2010-09-03 06:59:35 51°18.009 2°54.064 7.5 340 14.3 102100 46
2010-09-03 06:59:40 51°18.025 2°54.081 6.9 341 14.3 102100 47
2010-09-03 06:59:46 51°18.043 2°54.104 8 340 14.3 102100 47
2010-09-03 06:59:50 51°18.055 2°54.119 7.7 340 14.3 102100 48
2010-09-03 06:59:55 51°18.07 2°54.138 7.4 340 14.3 102100 48
2010-09-03 07:00:00 51°18.085 2°54.156 8.7 339 14.3 102100 47
2010-09-03 07:00:06 51°18.103 2°54.179 8.1 340 14.3 102100 47
2010-09-03 07:00:10 51°18.115 2°54.194 8.5 341 14.3 102100 46
2010-09-03 07:00:15 51°18.13 2°54.214 7.2 340 14.3 102100 46
2010-09-03 07:00:20 51°18.144 2°54.233 8.1 341 14.3 102100 48
2010-09-03 07:00:25 51°18.159 2°54.254 7.4 341 14.3 102100 48
2010-09-03 07:00:30 51°18.173 2°54.273 7.7 341 14.3 102100 48
2010-09-03 07:00:35 51°18.188 2°54.293 7.7 341 14.3 102100 48
2010-09-03 07:00:40 51°18.202 2°54.312 6.8 342 14.3 102100 46
2010-09-03 07:00:46 51°18.22 2°54.336 7.1 342 14.3 102100 46
2010-09-03 07:00:50 51°18.231 2°54.352 6.5 342 14.3 102100 46
2010-09-03 07:00:55 51°18.246 2°54.371 6.8 342 14.3 102100 46
2010-09-03 07:01:01 51°18.264 2°54.395 7.1 342 14.3 102100 46
2010-09-03 07:01:06 51°18.278 2°54.416 7.3 340 14.3 102100 46
2010-09-03 07:01:10 51°18.29 2°54.431 7.4 343 14.3 102100 46
2010-09-03 07:01:15 51°18.304 2°54.45 7.7 340 14.3 102100 46
2010-09-03 07:01:20 51°18.319 2°54.47 8.5 339 14.3 102100 47
2010-09-03 07:01:26 51°18.336 2°54.494 7.7 339 14.3 102100 47
2010-09-03 07:01:30 51°18.348 2°54.51 7.4 340 14.3 102100 46
2010-09-03 07:01:35 51°18.362 2°54.529 8.4 340 14.3 102100 46
2010-09-03 07:01:40 51°18.377 2°54.548 8 339 14.3 102100 48
2010-09-03 07:01:46 51°18.394 2°54.572 7.7 340 14.3 102100 48
2010-09-03 07:01:50 51°18.407 2°54.588 8.1 341 14.4 102100 46
2010-09-03 07:01:55 51°18.421 2°54.606 8.2 343 14.4 102100 46
2010-09-03 07:02:00 51°18.436 2°54.626 8.1 342 14.4 102100 48
2010-09-03 07:02:05 51°18.451 2°54.644 7.2 343 14.4 102100 48
2010-09-03 07:02:10 51°18.466 2°54.662 6.7 342 14.4 102100 48
2010-09-03 07:02:15 51°18.482 2°54.68 6.9 343 14.4 102100 48
2010-09-03 07:02:20 51°18.497 2°54.697 7.6 344 14.4 102100 46
2010-09-03 07:02:25 51°18.513 2°54.715 7.4 342 14.4 102100 46
2010-09-03 07:02:30 51°18.529 2°54.732 6.5 344 14.3 102110 47
2010-09-03 07:02:35 51°18.544 2°54.749 7 342 14.3 102110 47
2010-09-03 07:02:40 51°18.56 2°54.767 7.5 344 14.3 102100 48
2010-09-03 07:02:46 51°18.579 2°54.787 7 341 14.3 102100 48
2010-09-03 07:02:50 51°18.592 2°54.801 7 342 14.4 102100 45
2010-09-03 07:02:55 51°18.608 2°54.818 6.7 343 14.4 102100 45
2010-09-03 07:03:01 51°18.627 2°54.838 6.9 342 14.4 102100 48
2010-09-03 07:03:06 51°18.642 2°54.856 7.7 341 14.4 102100 48
2010-09-03 07:03:10 51°18.655 2°54.869 7.5 340 14.4 102100 49
2010-09-03 07:03:15 51°18.671 2°54.887 6.8 342 14.4 102100 49
2010-09-03 07:03:21 51°18.69 2°54.907 7.5 341 14.4 102100 47
2010-09-03 07:03:26 51°18.705 2°54.925 7.2 281 14.4 102100 47
2010-09-03 07:03:30 51°18.718 2°54.939 7.1 342 14.4 102110 46
2010-09-03 07:03:35 51°18.734 2°54.956 7.8 342 14.4 102110 46
2010-09-03 07:03:40 51°18.749 2°54.973 6.7 343 14.4 102100 47
2010-09-03 07:03:46 51°18.768 2°54.994 6.4 343 14.4 102100 47
2010-09-03 07:03:50 51°18.781 2°55.008 6.3 343 14.4 102100 48
2010-09-03 07:03:54 51°18.794 2°55.022 7.3 341 14.4 102100 48
2010-09-03 07:04:00 51°18.813 2°55.042 7.1 341 14.4 102100 46
2010-09-03 07:04:05 51°18.829 2°55.059 8.4 340 14.4 102100 46
2010-09-03 07:04:10 51°18.844 2°55.077 7.4 340 14.4 102110 47
2010-09-03 07:04:15 51°18.86 2°55.095 6.7 339 14.4 102110 47
2010-09-03 07:04:20 51°18.875 2°55.112 6.6 339 14.4 102100 46
2010-09-03 07:04:25 51°18.891 2°55.129 7 284 14.4 102100 46
2010-09-03 07:04:30 51°18.907 2°55.146 7.4 342 14.4 102110 46
2010-09-03 07:04:36 51°18.926 2°55.167 7.3 341 14.4 102110 46
2010-09-03 07:04:40 51°18.939 2°55.181 7.6 341 14.4 102100 46
2010-09-03 07:04:45 51°18.954 2°55.198 7 343 14.4 102100 46
2010-09-03 07:04:50 51°18.97 2°55.215 7.2 343 14.4 102110 47
2010-09-03 07:04:55 51°18.986 2°55.232 7.6 343 14.4 102110 47
2010-09-03 07:05:00 51°19.002 2°55.249 7.1 342 14.4 102100 48
2010-09-03 07:05:06 51°19.021 2°55.271 7.1 342 14.4 102100 48
2010-09-03 07:05:10 51°19.033 2°55.284 7.4 343 14.4 102100 46
2010-09-03 07:05:14 51°19.046 2°55.298 7.4 342 14.4 102100 46
2010-09-03 07:05:20 51°19.065 2°55.319 7.9 340 14.4 102100 46
2010-09-03 07:05:26 51°19.084 2°55.34 7 343 14.4 102100 46
2010-09-03 07:05:30 51°19.096 2°55.354 7.8 343 14.4 102110 47
2010-09-03 07:05:35 51°19.112 2°55.371 6.6 342 14.4 102110 47
2010-09-03 07:05:40 51°19.128 2°55.389 7 342 14.4 102100 47
2010-09-03 07:05:46 51°19.146 2°55.41 7 345 14.4 102100 47
2010-09-03 07:05:50 51°19.159 2°55.425 7.8 344 14.4 102100 48
2010-09-03 07:05:55 51°19.175 2°55.442 7.1 340 14.4 102100 48
2010-09-03 07:06:00 51°19.19 2°55.46 6.9 341 14.4 102100 45
2010-09-03 07:06:06 51°19.209 2°55.481 8.1 343 14.4 102100 45
2010-09-03 07:06:10 51°19.222 2°55.496 7.6 342 14.4 102100 48
2010-09-03 07:06:16 51°19.241 2°55.517 7.6 343 14.4 102100 48
2010-09-03 07:06:20 51°19.253 2°55.53 7.8 343 14.5 102100 46
2010-09-03 07:06:25 51°19.269 2°55.548 6.9 342 14.5 102100 46
2010-09-03 07:06:30 51°19.285 2°55.566 7.6 343 14.5 102100 46
2010-09-03 07:06:35 51°19.3 2°55.583 6.9 343 14.5 102100 46
2010-09-03 07:06:40 51°19.316 2°55.601 6.3 342 14.5 102100 46
2010-09-03 07:06:46 51°19.335 2°55.622 7.3 342 14.5 102100 46
2010-09-03 07:06:50 51°19.347 2°55.637 7.4 341 14.5 102100 46
2010-09-03 07:06:55 51°19.363 2°55.655 7.6 339 14.5 102100 46
2010-09-03 07:07:00 51°19.378 2°55.673 6.8 340 14.5 102100 47
2010-09-03 07:07:06 51°19.397 2°55.695 7.3 341 14.5 102100 47
2010-09-03 07:07:10 51°19.409 2°55.71 7 341 14.5 102100 46
2010-09-03 07:07:15 51°19.424 2°55.729 6.4 341 14.5 102100 46
2010-09-03 07:07:20 51°19.44 2°55.747 6.9 341 14.5 102100 46
2010-09-03 07:07:26 51°19.458 2°55.77 6.4 342 14.5 102100 46
2010-09-03 07:07:30 51°19.47 2°55.784 7.4 343 14.5 102100 46
2010-09-03 07:07:35 51°19.485 2°55.803 7.4 343 14.5 102100 46
2010-09-03 07:07:40 51°19.501 2°55.821 7.5 342 14.5 102100 46
2010-09-03 07:07:46 51°19.519 2°55.844 7.9 341 14.5 102100 46
2010-09-03 07:07:50 51°19.531 2°55.859 6.7 341 14.5 102100 48
2010-09-03 07:07:55 51°19.547 2°55.878 6.4 342 14.5 102100 48
2010-09-03 07:08:00 51°19.562 2°55.896 7.3 343 14.5 102100 46
2010-09-03 07:08:06 51°19.581 2°55.919 6.9 342 14.5 102100 46
2010-09-03 07:08:10 51°19.593 2°55.933 6.8 343 14.5 102100 48
2010-09-03 07:08:15 51°19.608 2°55.952 7.5 344 14.5 102100 48
2010-09-03 07:08:20 51°19.623 2°55.971 7 345 14.5 102100 47
2010-09-03 07:08:26 51°19.642 2°55.993 6.4 345 14.5 102100 47
2010-09-03 07:08:30 51°19.654 2°56.009 7.3 340 14.5 102100 46
2010-09-03 07:08:35 51°19.669 2°56.027 7.2 341 14.5 102100 46
2010-09-03 07:08:40 51°19.684 2°56.046 7.1 341 14.5 102100 45
2010-09-03 07:08:46 51°19.703 2°56.068 7 342 14.5 102100 45
2010-09-03 07:08:50 51°19.715 2°56.083 6.4 343 14.5 102100 47
2010-09-03 07:08:55 51°19.73 2°56.101 7.3 340 14.5 102100 47
2010-09-03 07:09:00 51°19.746 2°56.12 6.6 341 14.5 102100 46
2010-09-03 07:09:06 51°19.765 2°56.14 6.7 340 14.5 102100 46
2010-09-03 07:09:10 51°19.778 2°56.154 7.1 340 14.5 102110 47
2010-09-03 07:09:15 51°19.794 2°56.17 6.9 340 14.5 102110 47
2010-09-03 07:09:20 51°19.811 2°56.185 7.3 343 14.6 102100 47
2010-09-03 07:09:25 51°19.828 2°56.199 6.1 341 14.6 102100 47
2010-09-03 07:09:30 51°19.845 2°56.213 6 343 14.6 102100 46
2010-09-03 07:09:35 51°19.862 2°56.226 6.5 343 14.6 102100 46
2010-09-03 07:09:40 51°19.88 2°56.237 7 341 14.6 102100 48
2010-09-03 07:09:46 51°19.901 2°56.25 6.1 341 14.6 102100 48
2010-09-03 07:09:50 51°19.915 2°56.259 6.6 342 14.6 102110 46
2010-09-03 07:09:55 51°19.934 2°56.269 6.7 341 14.6 102110 46
2010-09-03 07:10:01 51°19.955 2°56.28 6.4 343 14.6 102100 46
2010-09-03 07:10:06 51°19.974 2°56.289 6.2 343 14.6 102100 46
2010-09-03 07:10:10 51°19.988 2°56.296 6.2 342 14.6 102100 47
2010-09-03 07:10:15 51°20.007 2°56.305 6.1 343 14.6 102100 47
2010-09-03 07:10:20 51°20.025 2°56.314 6.9 343 14.6 102100 46
2010-09-03 07:10:26 51°20.047 2°56.324 6.4 283 14.6 102100 46
2010-09-03 07:10:30 51°20.061 2°56.331 6.6 343 14.6 102110 46
2010-09-03 07:10:35 51°20.08 2°56.34 6 342 14.6 102110 46
2010-09-03 07:10:40 51°20.098 2°56.349 6.6 343 14.6 102100 46
2010-09-03 07:10:46 51°20.12 2°56.36 6.8 342 14.6 102100 46
2010-09-03 07:10:50 51°20.135 2°56.367 6.8 343 14.6 102100 48
2010-09-03 07:10:55 51°20.153 2°56.376 6.5 345 14.6 102100 48
2010-09-03 07:11:00 51°20.171 2°56.385 6 344 14.6 102100 48
2010-09-03 07:11:05 51°20.19 2°56.394 6.1 344 14.6 102100 48
2010-09-03 07:11:10 51°20.208 2°56.403 5.9 344 14.6 102100 46
2010-09-03 07:11:15 51°20.227 2°56.412 6.3 345 14.6 102100 46
2010-09-03 07:11:20 51°20.245 2°56.421 6.2 345 14.6 102100 46
2010-09-03 07:11:25 51°20.263 2°56.431 6.2 344 14.6 102100 46
2010-09-03 07:11:30 51°20.282 2°56.44 6.1 344 14.6 102100 46
2010-09-03 07:11:35 51°20.3 2°56.449 6.6 344 14.6 102100 46
2010-09-03 07:11:40 51°20.319 2°56.459 6.5 345 14.6 102100 47
2010-09-03 07:11:46 51°20.34 2°56.469 6.4 343 14.6 102100 47
2010-09-03 07:11:50 51°20.355 2°56.477 6.5 343 14.6 102110 46
2010-09-03 07:11:55 51°20.373 2°56.486 6.2 343 14.6 102110 46
2010-09-03 07:12:01 51°20.396 2°56.497 6.7 341 14.6 102100 47
2010-09-03 07:12:06 51°20.414 2°56.507 6.5 345 14.6 102100 47
2010-09-03 07:12:10 51°20.428 2°56.514 6.3 344 14.6 102100 48
2010-09-03 07:12:15 51°20.447 2°56.523 6.4 344 14.6 102100 48
2010-09-03 07:12:20 51°20.465 2°56.533 6.3 345 14.6 102100 46
2010-09-03 07:12:26 51°20.487 2°56.545 6.5 284 14.6 102100 46
2010-09-03 07:12:30 51°20.501 2°56.553 7.1 344 14.6 102110 47
2010-09-03 07:12:35 51°20.519 2°56.562 6.8 345 14.6 102110 47
2010-09-03 07:12:40 51°20.537 2°56.572 6.1 345 14.6 102110 48
2010-09-03 07:12:46 51°20.559 2°56.583 6.9 345 14.6 102110 48
2010-09-03 07:12:50 51°20.574 2°56.591 6.9 344 14.7 102110 47
2010-09-03 07:12:54 51°20.589 2°56.598 6.6 344 14.7 102110 47
2010-09-03 07:13:00 51°20.61 2°56.61 6.4 344 14.6 102110 47
2010-09-03 07:13:05 51°20.628 2°56.62 6.2 344 14.6 102110 47
2010-09-03 07:13:10 51°20.647 2°56.629 6.4 343 14.6 102100 47
2010-09-03 07:13:15 51°20.665 2°56.64 6.8 344 14.6 102100 47
2010-09-03 07:13:20 51°20.683 2°56.65 6.9 342 14.6 102110 46
2010-09-03 07:13:25 51°20.701 2°56.661 6.9 343 14.6 102110 46
2010-09-03 07:13:30 51°20.719 2°56.673 6.9 341 14.6 102110 48
2010-09-03 07:13:36 51°20.74 2°56.687 7.8 344 14.6 102110 48
2010-09-03 07:13:40 51°20.754 2°56.696 7.1 341 14.6 102110 47
2010-09-03 07:13:45 51°20.772 2°56.708 7.7 343 14.6 102110 47
2010-09-03 07:13:50 51°20.789 2°56.721 7 342 14.7 102110 46
2010-09-03 07:13:55 51°20.807 2°56.733 6.5 343 14.7 102110 46
2010-09-03 07:14:00 51°20.824 2°56.745 6.8 343 14.7 102100 47
2010-09-03 07:14:06 51°20.845 2°56.76 6.7 341 14.7 102100 47
2010-09-03 07:14:10 51°20.859 2°56.77 6.4 340 14.7 102100 48
2010-09-03 07:14:14 51°20.873 2°56.781 7.4 341 14.7 102100 48
2010-09-03 07:14:20 51°20.894 2°56.796 6.8 343 14.7 102110 46
2010-09-03 07:14:26 51°20.914 2°56.813 7.6 283 14.7 102110 46
2010-09-03 07:14:30 51°20.928 2°56.824 6.7 344 14.7 102100 48
2010-09-03 07:14:35 51°20.945 2°56.839 6.5 341 14.7 102100 48
2010-09-03 07:14:40 51°20.962 2°56.853 6.6 344 14.7 102100 48
2010-09-03 07:14:46 51°20.982 2°56.87 6.5 344 14.7 102100 48
2010-09-03 07:14:50 51°20.995 2°56.882 6.4 342 14.7 102110 46
2010-09-03 07:14:55 51°21.012 2°56.898 6.1 342 14.7 102110 46
2010-09-03 07:15:00 51°21.029 2°56.913 7.1 344 14.6 102100 48
2010-09-03 07:15:06 51°21.048 2°56.932 8.2 341 14.6 102100 48
2010-09-03 07:15:10 51°21.061 2°56.945 7.5 342 14.6 102100 45
2010-09-03 07:15:16 51°21.081 2°56.964 6.6 343 14.6 102100 45
2010-09-03 07:15:20 51°21.093 2°56.977 6.8 341 14.6 102100 46
2010-09-03 07:15:25 51°21.109 2°56.994 6.5 340 14.6 102100 46
2010-09-03 07:15:30 51°21.125 2°57.011 7.7 341 14.7 102110 46
2010-09-03 07:15:35 51°21.141 2°57.027 7.4 340 14.7 102110 46
2010-09-03 07:15:40 51°21.157 2°57.045 7.5 342 14.7 102100 45
2010-09-03 07:15:46 51°21.176 2°57.065 8.1 342 14.7 102100 45
2010-09-03 07:15:50 51°21.189 2°57.079 7.2 340 14.7 102100 48
2010-09-03 07:15:55 51°21.205 2°57.096 8.5 342 14.7 102100 48
2010-09-03 07:16:00 51°21.221 2°57.113 7.1 343 14.7 102100 48
2010-09-03 07:16:06 51°21.24 2°57.134 7.3 341 14.7 102100 48
2010-09-03 07:16:10 51°21.253 2°57.146 6.9 342 14.8 102100 46
2010-09-03 07:16:15 51°21.268 2°57.164 6.9 342 14.8 102100 46
2010-09-03 07:16:20 51°21.284 2°57.181 8 344 14.8 102100 47
2010-09-03 07:16:26 51°21.303 2°57.201 6.8 284 14.8 102100 47
2010-09-03 07:16:30 51°21.316 2°57.215 6.8 344 14.7 102100 46
2010-09-03 07:16:35 51°21.332 2°57.231 6.8 343 14.7 102100 46
2010-09-03 07:16:40 51°21.348 2°57.249 7 341 14.7 102100 44
2010-09-03 07:16:46 51°21.367 2°57.269 6.9 343 14.7 102100 44
2010-09-03 07:16:50 51°21.38 2°57.283 6.9 340 14.8 102110 47
2010-09-03 07:16:55 51°21.396 2°57.299 8.2 342 14.8 102110 47
2010-09-03 07:17:00 51°21.412 2°57.316 7.1 341 14.7 102100 47
2010-09-03 07:17:06 51°21.431 2°57.337 7 341 14.7 102100 47
2010-09-03 07:17:10 51°21.443 2°57.351 6.8 341 14.7 102100 48
2010-09-03 07:17:15 51°21.459 2°57.368 7.4 343 14.7 102100 48
2010-09-03 07:17:20 51°21.475 2°57.384 7.5 344 14.8 102110 47
2010-09-03 07:17:26 51°21.494 2°57.405 7 343 14.8 102110 47
2010-09-03 07:17:30 51°21.507 2°57.419 7.1 344 14.7 102110 45
2010-09-03 07:17:35 51°21.523 2°57.435 7.3 344 14.7 102110 45
2010-09-03 07:17:40 51°21.539 2°57.452 6.6 345 14.7 102110 45
2010-09-03 07:17:46 51°21.558 2°57.473 7.6 344 14.7 102110 45
2010-09-03 07:17:50 51°21.57 2°57.486 7.6 343 14.7 102100 46
2010-09-03 07:17:55 51°21.586 2°57.503 7.3 341 14.7 102100 46
2010-09-03 07:18:00 51°21.602 2°57.519 7.8 344 14.7 102100 48
2010-09-03 07:18:06 51°21.622 2°57.54 7.6 344 14.7 102100 48
2010-09-03 07:18:10 51°21.634 2°57.553 7.6 345 14.7 102110 46
2010-09-03 07:18:15 51°21.65 2°57.57 6.6 344 14.7 102110 46
2010-09-03 07:18:20 51°21.666 2°57.587 7.3 344 14.7 102100 45
2010-09-03 07:18:25 51°21.682 2°57.604 6.7 284 14.7 102100 45
2010-09-03 07:18:30 51°21.698 2°57.621 6.4 344 14.7 102100 45
2010-09-03 07:18:35 51°21.714 2°57.638 6.5 343 14.7 102100 45
2010-09-03 07:18:40 51°21.73 2°57.656 6.7 343 14.7 102100 48
2010-09-03 07:18:46 51°21.749 2°57.676 6.4 344 14.7 102100 48
2010-09-03 07:18:50 51°21.761 2°57.691 6.8 344 14.7 102110 46
2010-09-03 07:18:55 51°21.777 2°57.708 7.8 344 14.7 102110 46
2010-09-03 07:19:01 51°21.796 2°57.729 7.5 345 14.7 102100 48
2010-09-03 07:19:06 51°21.812 2°57.748 7.2 344 14.7 102100 48
2010-09-03 07:19:10 51°21.824 2°57.762 6.9 343 14.7 102100 46
2010-09-03 07:19:15 51°21.84 2°57.779 8 346 14.7 102100 46
2010-09-03 07:19:20 51°21.855 2°57.797 6.6 345 14.7 102110 47
2010-09-03 07:19:26 51°21.874 2°57.819 7.2 344 14.7 102110 47
2010-09-03 07:19:30 51°21.887 2°57.833 6.7 345 14.8 102100 48
2010-09-03 07:19:35 51°21.902 2°57.851 7.1 345 14.8 102100 48
2010-09-03 07:19:40 51°21.917 2°57.869 6.9 345 14.8 102100 46
2010-09-03 07:19:45 51°21.933 2°57.887 6.9 346 14.8 102100 46
2010-09-03 07:19:50 51°21.949 2°57.905 6.7 345 14.8 102100 48
2010-09-03 07:19:55 51°21.964 2°57.923 6.9 345 14.8 102100 48
2010-09-03 07:20:00 51°21.98 2°57.941 6.3 344 14.8 102110 47
2010-09-03 07:20:05 51°21.996 2°57.959 6.5 342 14.8 102110 47
2010-09-03 07:20:10 51°22.011 2°57.976 6.7 343 14.8 102110 48
2010-09-03 07:20:15 51°22.027 2°57.995 6.6 343 14.8 102110 48
2010-09-03 07:20:20 51°22.043 2°58.013 7.9 344 14.8 102110 45
2010-09-03 07:20:26 51°22.061 2°58.034 7.7 284 14.8 102110 45
2010-09-03 07:20:30 51°22.074 2°58.047 7.8 344 14.8 102110 47
2010-09-03 07:20:35 51°22.089 2°58.066 8.2 342 14.8 102110 47
2010-09-03 07:20:40 51°22.105 2°58.083 7.3 343 14.8 102100 46
2010-09-03 07:20:46 51°22.124 2°58.105 6.8 343 14.8 102100 46
2010-09-03 07:20:50 51°22.137 2°58.119 7.2 345 14.8 102100 47
2010-09-03 07:20:54 51°22.149 2°58.134 7.3 341 14.8 102100 47
2010-09-03 07:21:00 51°22.168 2°58.154 6.5 343 14.8 102100 47
2010-09-03 07:21:06 51°22.187 2°58.176 6.4 342 14.8 102100 47
2010-09-03 07:21:10 51°22.199 2°58.19 7.1 344 14.8 102100 45
2010-09-03 07:21:15 51°22.215 2°58.209 6.9 341 14.8 102100 45
2010-09-03 07:21:21 51°22.234 2°58.23 7.9 341 14.8 102110 47
2010-09-03 07:21:26 51°22.249 2°58.248 7.9 342 14.8 102110 47
2010-09-03 07:21:30 51°22.262 2°58.261 7.5 343 14.8 102110 45
2010-09-03 07:21:34 51°22.274 2°58.276 7.6 340 14.8 102110 45
2010-09-03 07:21:40 51°22.293 2°58.297 7.8 342 14.8 102100 45
2010-09-03 07:21:46 51°22.312 2°58.319 7.6 344 14.8 102100 45
2010-09-03 07:21:50 51°22.324 2°58.333 6.8 343 14.8 102100 45
2010-09-03 07:21:55 51°22.34 2°58.351 7 343 14.8 102100 45
2010-09-03 07:22:00 51°22.356 2°58.368 7.3 343 14.8 102100 45
2010-09-03 07:22:06 51°22.374 2°58.39 6.4 342 14.8 102100 45
2010-09-03 07:22:10 51°22.387 2°58.403 6.4 343 14.8 102110 47
2010-09-03 07:22:16 51°22.405 2°58.425 6.5 341 14.8 102110 47
2010-09-03 07:22:20 51°22.418 2°58.439 7.1 342 14.8 102100 45
2010-09-03 07:22:25 51°22.434 2°58.457 7.7 284 14.8 102100 45
2010-09-03 07:22:30 51°22.45 2°58.475 7.5 342 14.8 102110 47
2010-09-03 07:22:35 51°22.465 2°58.493 7.6 340 14.8 102110 47
2010-09-03 07:22:40 51°22.481 2°58.51 7.8 340 14.9 102110 45
2010-09-03 07:22:46 51°22.5 2°58.532 7.7 343 14.9 102110 45
2010-09-03 07:22:50 51°22.513 2°58.545 7.1 344 14.9 102110 45
2010-09-03 07:22:55 51°22.528 2°58.563 7.9 343 14.9 102110 45
2010-09-03 07:23:01 51°22.548 2°58.584 6.7 344 14.9 102110 45
2010-09-03 07:23:06 51°22.563 2°58.602 6.7 343 14.9 102110 45
2010-09-03 07:23:10 51°22.576 2°58.617 7.1 342 14.9 102100 47
2010-09-03 07:23:14 51°22.589 2°58.63 6.9 344 14.9 102100 47
2010-09-03 07:23:21 51°22.611 2°58.655 7 342 14.9 102110 45
2010-09-03 07:23:26 51°22.626 2°58.674 7.3 343 14.9 102110 45
2010-09-03 07:23:30 51°22.639 2°58.688 8 343 14.9 102110 45
2010-09-03 07:23:35 51°22.655 2°58.706 7.8 342 14.9 102110 45
2010-09-03 07:23:40 51°22.671 2°58.723 7.9 342 14.9 102110 47
2010-09-03 07:23:46 51°22.69 2°58.744 7.5 343 14.9 102110 47
2010-09-03 07:23:50 51°22.702 2°58.758 7.5 341 14.9 102110 45
2010-09-03 07:23:55 51°22.718 2°58.776 7.4 342 14.9 102110 45
2010-09-03 07:24:00 51°22.734 2°58.795 6.8 343 14.9 102110 45
2010-09-03 07:24:05 51°22.75 2°58.812 7.8 341 14.9 102110 45
2010-09-03 07:24:10 51°22.765 2°58.83 7.7 342 14.9 102110 45
2010-09-03 07:24:15 51°22.781 2°58.848 8.2 341 14.9 102110 45
2010-09-03 07:24:20 51°22.797 2°58.866 8.1 342 14.9 102110 45
2010-09-03 07:24:25 51°22.812 2°58.884 7.8 280 14.9 102110 45
2010-09-03 07:24:30 51°22.828 2°58.904 7 340 14.9 102100 45
2010-09-03 07:24:35 51°22.843 2°58.922 7.3 341 14.9 102100 45
2010-09-03 07:24:40 51°22.858 2°58.941 7.7 341 14.9 102110 44
2010-09-03 07:24:46 51°22.877 2°58.964 7.1 341 14.9 102110 44
2010-09-03 07:24:50 51°22.889 2°58.979 6.7 341 14.9 102110 45
2010-09-03 07:24:55 51°22.904 2°58.998 7.2 341 14.9 102110 45
2010-09-03 07:25:00 51°22.919 2°59.018 7.6 343 14.9 102110 45
2010-09-03 07:25:06 51°22.937 2°59.041 6.6 342 14.9 102110 45
2010-09-03 07:25:10 51°22.949 2°59.056 7.1 344 14.9 102110 47
2010-09-03 07:25:15 51°22.964 2°59.075 7.5 341 14.9 102110 47
2010-09-03 07:25:20 51°22.98 2°59.094 7.6 337 14.9 102120 47
2010-09-03 07:25:26 51°22.998 2°59.118 7.6 342 14.9 102120 47
2010-09-03 07:25:30 51°23.01 2°59.133 6.7 343 15 102110 46
2010-09-03 07:25:35 51°23.025 2°59.153 7 341 15 102110 46
2010-09-03 07:25:40 51°23.04 2°59.173 6.5 340 15 102110 46
2010-09-03 07:25:46 51°23.057 2°59.197 6.4 341 15 102110 46
2010-09-03 07:25:50 51°23.069 2°59.213 7.7 340 15 102110 45
2010-09-03 07:25:55 51°23.084 2°59.233 6.9 341 15 102110 45
2010-09-03 07:26:01 51°23.102 2°59.258 7.7 341 15 102110 45
2010-09-03 07:26:06 51°23.117 2°59.277 8 340 15 102110 45
2010-09-03 07:26:10 51°23.129 2°59.293 7 340 15 102120 47
2010-09-03 07:26:15 51°23.143 2°59.313 7.5 340 15 102120 47
2010-09-03 07:26:20 51°23.158 2°59.334 7.3 339 15 102110 45
2010-09-03 07:26:25 51°23.172 2°59.355 7.4 284 15 102110 45
2010-09-03 07:26:30 51°23.187 2°59.375 7.5 340 15 102110 45
2010-09-03 07:26:35 51°23.201 2°59.396 7.1 341 15 102110 45
2010-09-03 07:26:40 51°23.215 2°59.417 7.6 341 15 102110 47
2010-09-03 07:26:46 51°23.232 2°59.442 8.1 341 15 102110 47
2010-09-03 07:26:50 51°23.244 2°59.459 7.6 339 15 102110 45
2010-09-03 07:26:55 51°23.258 2°59.48 8.1 340 15 102110 45
2010-09-03 07:27:00 51°23.272 2°59.501 8.1 339 15 102120 45
2010-09-03 07:27:06 51°23.29 2°59.526 7.9 340 15 102120 45
2010-09-03 07:27:10 51°23.301 2°59.543 8.4 340 15 102120 46
2010-09-03 07:27:15 51°23.316 2°59.564 7.4 340 15 102120 46
2010-09-03 07:27:20 51°23.33 2°59.585 7.1 341 15 102110 44
2010-09-03 07:27:25 51°23.345 2°59.605 7.4 340 15 102110 44
2010-09-03 07:27:30 51°23.359 2°59.625 7.7 340 15 102110 45
2010-09-03 07:27:35 51°23.374 2°59.645 7.2 340 15 102110 45
2010-09-03 07:27:40 51°23.389 2°59.665 7.4 341 15 102120 47
2010-09-03 07:27:46 51°23.407 2°59.689 8 341 15 102120 47
2010-09-03 07:27:50 51°23.419 2°59.705 8.3 341 15 102110 47
2010-09-03 07:27:55 51°23.434 2°59.725 8.5 339 15 102110 47
2010-09-03 07:28:01 51°23.452 2°59.749 7 339 15 102110 46
2010-09-03 07:28:06 51°23.467 2°59.766 8.3 341 15 102110 46
2010-09-03 07:28:10 51°23.479 2°59.782 8.4 341 15 102110 45
2010-09-03 07:28:15 51°23.496 2°59.799 7.7 341 15 102110 45
2010-09-03 07:28:20 51°23.511 2°59.818 8.7 341 15 102110 47
2010-09-03 07:28:26 51°23.53 2°59.839 7.4 279 15 102110 47
2010-09-03 07:28:30 51°23.543 2°59.854 8.4 342 15 102110 45
2010-09-03 07:28:35 51°23.559 2°59.871 7.2 343 15 102110 45
2010-09-03 07:28:40 51°23.574 2°59.889 7.7 341 15 102110 47
2010-09-03 07:28:45 51°23.59 2°59.907 6.9 339 15 102110 47
2010-09-03 07:28:50 51°23.606 2°59.925 7.4 340 15 102120 46
2010-09-03 07:28:55 51°23.622 2°59.943 7.4 340 15 102120 46
2010-09-03 07:29:00 51°23.638 2°59.96 8 340 15 102110 46
2010-09-03 07:29:05 51°23.654 2°59.978 8 341 15 102110 46
2010-09-03 07:29:10 51°23.67 2°59.996 7.8 342 15 102110 45
2010-09-03 07:29:15 51°23.686 3°0.013 6.8 342 15 102110 45
2010-09-03 07:29:20 51°23.702 3°0.031 6.8 340 15 102110 46
2010-09-03 07:29:26 51°23.721 3°0.053 8.6 340 15 102110 46
2010-09-03 07:29:30 51°23.734 3°0.067 7.4 339 15 102110 46
2010-09-03 07:29:35 51°23.75 3°0.085 7.9 341 15 102110 46
2010-09-03 07:29:40 51°23.766 3°0.102 7.5 339 15 102110 47
2010-09-03 07:29:46 51°23.785 3°0.124 7.3 340 15 102110 47
2010-09-03 07:29:50 51°23.798 3°0.138 7.5 340 15 102120 46
2010-09-03 07:29:55 51°23.813 3°0.156 8.3 341 15 102120 46
2010-09-03 07:30:01 51°23.832 3°0.177 7.8 342 15 102110 43
2010-09-03 07:30:06 51°23.849 3°0.195 7.4 342 15 102110 43
2010-09-03 07:30:10 51°23.861 3°0.21 7.4 343 15 102120 47
2010-09-03 07:30:14 51°23.874 3°0.225 6.7 342 15 102120 47
2010-09-03 07:30:20 51°23.893 3°0.245 7.3 344 15 102120 47
2010-09-03 07:30:26 51°23.912 3°0.267 7.2 278 15 102120 47
2010-09-03 07:30:30 51°23.925 3°0.282 6.8 342 15 102120 46
2010-09-03 07:30:35 51°23.94 3°0.3 8.3 339 15 102120 46
2010-09-03 07:30:40 51°23.956 3°0.318 7.4 340 15 102110 45
2010-09-03 07:30:46 51°23.975 3°0.339 7.1 341 15 102110 45
2010-09-03 07:30:50 51°23.987 3°0.353 7.3 341 15 102120 45
2010-09-03 07:30:55 51°24.003 3°0.37 7.6 343 15 102120 45
2010-09-03 07:31:00 51°24.019 3°0.389 8 340 15 102120 47
2010-09-03 07:31:05 51°24.035 3°0.406 7.9 343 15 102120 47
2010-09-03 07:31:10 51°24.051 3°0.424 8.3 341 15 102110 47
2010-09-03 07:31:15 51°24.066 3°0.442 7.3 342 15 102110 47
2010-09-03 07:31:20 51°24.082 3°0.46 7.1 342 15 102120 45
2010-09-03 07:31:25 51°24.098 3°0.478 7.2 341 15 102120 45
2010-09-03 07:31:30 51°24.114 3°0.496 6.7 342 15.1 102110 45
2010-09-03 07:31:35 51°24.13 3°0.513 7.3 342 15.1 102110 45
2010-09-03 07:31:40 51°24.146 3°0.531 7.4 341 15 102110 46
2010-09-03 07:31:46 51°24.165 3°0.553 7.4 339 15 102110 46
2010-09-03 07:31:50 51°24.178 3°0.567 7.9 339 15 102110 47
2010-09-03 07:31:55 51°24.194 3°0.585 8.6 341 15 102110 47
2010-09-03 07:32:01 51°24.213 3°0.606 7.9 341 15 102120 45
2010-09-03 07:32:06 51°24.228 3°0.624 8 341 15 102120 45
2010-09-03 07:32:10 51°24.241 3°0.638 8 339 15.1 102110 45
2010-09-03 07:32:15 51°24.257 3°0.656 7.3 341 15.1 102110 45
2010-09-03 07:32:20 51°24.273 3°0.674 8 341 15.1 102120 45
2010-09-03 07:32:26 51°24.292 3°0.695 8 283 15.1 102120 45
2010-09-03 07:32:30 51°24.305 3°0.709 7.7 341 15.1 102110 47
2010-09-03 07:32:35 51°24.321 3°0.727 7.9 341 15.1 102110 47
2010-09-03 07:32:40 51°24.337 3°0.745 7.3 342 15.1 102110 45
2010-09-03 07:32:46 51°24.356 3°0.766 7.7 341 15.1 102110 45
2010-09-03 07:32:50 51°24.369 3°0.781 7.8 342 15 102120 45
2010-09-03 07:32:55 51°24.384 3°0.799 7.1 341 15 102120 45
2010-09-03 07:33:00 51°24.4 3°0.817 8 339 15 102110 45
2010-09-03 07:33:05 51°24.415 3°0.835 7.2 341 15 102110 45
2010-09-03 07:33:10 51°24.431 3°0.853 6.7 341 15 102120 45
2010-09-03 07:33:15 51°24.446 3°0.87 6.7 341 15 102120 45
2010-09-03 07:33:20 51°24.462 3°0.888 7.4 343 15 102110 47
2010-09-03 07:33:25 51°24.478 3°0.905 7.4 341 15 102110 47
2010-09-03 07:33:30 51°24.494 3°0.923 7.4 342 15 102110 45
2010-09-03 07:33:35 51°24.51 3°0.94 7.1 343 15 102110 45
2010-09-03 07:33:40 51°24.525 3°0.958 6.3 343 15 102120 45